TimeCST,TemperatureF,Dew PointF,Humidity,Sea Level PressureIn,VisibilityMPH,Wind Direction,Wind SpeedMPH,Gust SpeedMPH,PrecipitationIn,Events,Conditions,WindDirDegrees,DateUTC
12:14 AM,8.6,5.0,85,29.92,0.2,Calm,Calm,-,N/A,Snow,Light Snow,0,2013-02-24 06:14:00
12:33 AM,10.4,10.4,100,29.93,0.2,Calm,Calm,-,N/A,Fog,Light Freezing Fog,0,2013-02-24 06:33:00
12:53 AM,8.6,6.8,92,29.93,0.2,Calm,Calm,-,N/A,Fog,Light Freezing Fog,0,2013-02-24 06:53:00
1:14 AM,6.8,3.2,85,29.93,0.5,Calm,Calm,-,N/A,Fog,Light Freezing Fog,0,2013-02-24 07:14:00
1:33 AM,3.2,-0.4,85,29.94,0.5,Calm,Calm,-,N/A,Fog,Light Freezing Fog,0,2013-02-24 07:33:00
1:53 AM,3.2,1.4,92,29.94,1.0,Calm,Calm,-,N/A,,Overcast,0,2013-02-24 07:53:00
2:14 AM,3.2,1.4,92,29.94,0.2,Calm,Calm,-,N/A,Fog,Light Freezing Fog,0,2013-02-24 08:14:00
2:33 AM,3.2,-0.4,85,29.94,0.2,Calm,Calm,-,N/A,Fog,Light Freezing Fog,0,2013-02-24 08:33:00
2:53 AM,3.2,-0.4,85,29.95,0.8,Calm,Calm,-,N/A,,Overcast,0,2013-02-24 08:53:00
3:13 AM,3.2,1.4,92,29.94,0.2,Calm,Calm,-,N/A,Fog,Light Freezing Fog,0,2013-02-24 09:13:00
3:33 AM,3.2,1.4,92,29.94,0.2,Calm,Calm,-,N/A,Fog,Light Freezing Fog,0,2013-02-24 09:33:00
3:54 AM,3.2,1.4,92,29.94,0.2,Calm,Calm,-,N/A,Fog,Light Freezing Fog,0,2013-02-24 09:54:00
4:13 AM,1.4,-0.4,92,29.95,0.2,Calm,Calm,-,N/A,Fog,Light Freezing Fog,0,2013-02-24 10:13:00
4:33 AM,3.2,-0.4,85,29.96,0.2,Calm,Calm,-,N/A,Fog,Light Freezing Fog,0,2013-02-24 10:33:00
4:54 AM,1.4,-2.2,85,29.96,0.2,Calm,Calm,-,N/A,Fog,Light Freezing Fog,0,2013-02-24 10:54:00
5:13 AM,1.4,-2.2,85,29.97,0.5,Calm,Calm,-,N/A,Fog,Light Freezing Fog,0,2013-02-24 11:13:00
5:33 AM,1.4,-2.2,85,29.97,0.2,Calm,Calm,-,N/A,Fog,Light Freezing Fog,0,2013-02-24 11:33:00
5:54 AM,1.4,-0.4,92,29.97,0.2,Calm,Calm,-,N/A,Snow,Light Snow,0,2013-02-24 11:54:00
6:13 AM,3.2,-0.4,85,29.98,0.2,Calm,Calm,-,N/A,Fog,Light Freezing Fog,0,2013-02-24 12:13:00
6:33 AM,1.4,-0.4,92,29.99,0.5,Calm,Calm,-,N/A,Fog,Light Freezing Fog,0,2013-02-24 12:33:00
6:53 AM,1.4,-0.4,92,29.99,0.5,Calm,Calm,-,N/A,Fog,Light Freezing Fog,0,2013-02-24 12:53:00
7:13 AM,1.4,-0.4,92,29.99,0.2,Calm,Calm,-,N/A,Fog,Light Freezing Fog,0,2013-02-24 13:13:00
7:33 AM,1.4,-2.2,85,29.99,0.2,Calm,Calm,-,N/A,Fog,Light Freezing Fog,0,2013-02-24 13:33:00
7:53 AM,-0.4,-2.2,92,30.00,4.0,Calm,Calm,-,N/A,,Mostly Cloudy,0,2013-02-24 13:53:00
8:13 AM,1.4,-0.4,92,30.00,3.0,Calm,Calm,-,N/A,,Scattered Clouds,0,2013-02-24 14:13:00
8:33 AM,3.2,-0.4,85,30.00,2.0,Calm,Calm,-,N/A,,Mist,0,2013-02-24 14:33:00
8:53 AM,3.2,1.4,92,30.00,1.8,Calm,Calm,-,N/A,,Mist,0,2013-02-24 14:53:00
9:13 AM,6.8,3.2,85,30.01,1.8,Calm,Calm,-,N/A,,Mist,0,2013-02-24 15:13:00
9:34 AM,8.6,6.8,92,30.02,1.8,Calm,Calm,-,N/A,,Mist,0,2013-02-24 15:34:00
9:53 AM,6.8,5.0,92,30.03,1.5,Calm,Calm,-,N/A,,Clear,0,2013-02-24 15:53:00
10:13 AM,10.4,8.6,92,30.03,1.5,Calm,Calm,-,N/A,,Clear,0,2013-02-24 16:13:00
10:34 AM,10.4,8.6,92,30.03,1.2,Calm,Calm,-,N/A,,Clear,0,2013-02-24 16:34:00
10:53 AM,12.2,10.4,92,30.03,1.2,Calm,Calm,-,N/A,,Clear,0,2013-02-24 16:53:00
11:13 AM,15.8,12.2,86,30.03,7.0,Calm,Calm,-,N/A,,Clear,0,2013-02-24 17:13:00
11:34 AM,17.6,15.8,93,30.04,7.0,Calm,Calm,-,N/A,,Clear,0,2013-02-24 17:34:00
11:53 AM,17.6,15.8,93,30.04,10.0,Calm,Calm,-,N/A,,Clear,0,2013-02-24 17:53:00
12:13 PM,17.6,17.6,100,30.05,10.0,Calm,Calm,-,N/A,,Clear,0,2013-02-24 18:13:00
12:34 PM,19.4,19.4,100,30.04,10.0,South,3.5,-,N/A,,Clear,180,2013-02-24 18:34:00
12:53 PM,21.2,21.2,100,30.04,10.0,South,4.6,-,N/A,,Clear,180,2013-02-24 18:53:00
1:13 PM,21.2,21.2,100,30.04,10.0,Calm,Calm,-,N/A,,Clear,0,2013-02-24 19:13:00
1:33 PM,23.0,21.2,93,30.04,10.0,SSW,3.5,-,N/A,,Clear,210,2013-02-24 19:33:00
1:53 PM,24.8,21.2,86,30.04,10.0,South,3.5,-,N/A,,Clear,190,2013-02-24 19:53:00
2:13 PM,24.8,19.4,80,30.03,10.0,Calm,Calm,-,N/A,,Clear,0,2013-02-24 20:13:00
2:33 PM,24.8,15.8,69,30.03,10.0,Calm,Calm,-,N/A,,Clear,0,2013-02-24 20:33:00
2:53 PM,26.6,15.8,64,30.03,10.0,Calm,Calm,-,N/A,,Clear,0,2013-02-24 20:53:00
3:13 PM,26.6,15.8,64,30.03,10.0,Calm,Calm,-,N/A,,Clear,0,2013-02-24 21:13:00
3:33 PM,26.6,15.8,64,30.02,10.0,South,4.6,-,N/A,,Clear,170,2013-02-24 21:33:00
3:53 PM,26.6,15.8,64,30.02,10.0,South,3.5,-,N/A,,Clear,170,2013-02-24 21:53:00
4:13 PM,24.8,15.8,69,30.02,10.0,SSW,3.5,-,N/A,,Clear,200,2013-02-24 22:13:00
4:33 PM,24.8,14.0,64,30.02,10.0,SSW,3.5,-,N/A,,Clear,200,2013-02-24 22:33:00
4:53 PM,21.2,14.0,74,30.02,10.0,SSW,4.6,-,N/A,,Clear,210,2013-02-24 22:53:00
5:13 PM,19.4,12.2,74,30.03,10.0,SW,3.5,-,N/A,,Clear,220,2013-02-24 23:13:00
5:33 PM,19.4,12.2,74,30.03,10.0,SW,3.5,-,N/A,,Clear,220,2013-02-24 23:33:00
5:53 PM,19.4,12.2,74,30.03,10.0,Calm,Calm,-,N/A,,Clear,0,2013-02-24 23:53:00
6:14 PM,19.4,12.2,74,30.04,10.0,Calm,Calm,-,N/A,,Clear,0,2013-02-25 00:14:00
6:33 PM,19.4,12.2,74,30.04,10.0,Calm,Calm,-,N/A,,Clear,0,2013-02-25 00:33:00
6:53 PM,17.6,12.2,79,30.05,10.0,Calm,Calm,-,N/A,,Clear,0,2013-02-25 00:53:00
7:14 PM,17.6,12.2,79,30.04,10.0,Calm,Calm,-,N/A,,Clear,0,2013-02-25 01:14:00
7:33 PM,19.4,12.2,74,30.05,10.0,Calm,Calm,-,N/A,,Clear,0,2013-02-25 01:33:00
7:53 PM,19.4,12.2,74,30.05,10.0,Calm,Calm,-,N/A,,Clear,0,2013-02-25 01:53:00
8:14 PM,17.6,12.2,79,30.05,10.0,Calm,Calm,-,N/A,,Clear,0,2013-02-25 02:14:00
8:33 PM,19.4,12.2,74,30.05,10.0,Calm,Calm,-,N/A,,Clear,0,2013-02-25 02:33:00
8:53 PM,15.8,10.4,79,30.05,10.0,Calm,Calm,-,N/A,,Clear,0,2013-02-25 02:53:00
9:14 PM,15.8,10.4,79,30.05,10.0,Calm,Calm,-,N/A,,Clear,0,2013-02-25 03:14:00
9:33 PM,15.8,10.4,79,30.06,10.0,Calm,Calm,-,N/A,,Clear,0,2013-02-25 03:33:00
9:53 PM,15.8,12.2,86,30.06,10.0,Calm,Calm,-,N/A,,Clear,0,2013-02-25 03:53:00
10:14 PM,14.0,10.4,86,30.06,10.0,Calm,Calm,-,N/A,,Clear,0,2013-02-25 04:14:00
10:33 PM,14.0,10.4,86,30.06,10.0,SSW,4.6,-,N/A,,Clear,210,2013-02-25 04:33:00
10:53 PM,14.0,10.4,86,30.06,10.0,SSW,4.6,-,N/A,,Clear,210,2013-02-25 04:53:00
11:13 PM,14.0,10.4,86,30.06,10.0,Calm,Calm,-,N/A,,Clear,0,2013-02-25 05:13:00
11:33 PM,12.2,10.4,92,30.06,10.0,SSW,3.5,-,N/A,,Clear,210,2013-02-25 05:33:00
11:53 PM,12.2,10.4,92,30.06,10.0,South,4.6,-,N/A,,Clear,190,2013-02-25 05:53:00